OBJECT QV

Last updated on Fri Dec 06 2019 00:02:12 GMT+0000 (Coordinated Universal Time)

1 44790U 98067QV 19339.30185508 -.00000467 00000-0 00000+0 0 9996 2 44790 51.6436 232.8656 0009212 21.2578 81.0725 15.50874468 2320
UTC large
Height (km)
Speed (km/s)
/
Latitude / Longitude
Inclination (degrees)
Orbital Period (minutes)
Azimuth
Elevation
Range (km)
Doppler Factor

Next 0 passes for location: London (51.5072 / 0.1276)

Sorry there are no passes over London.